Location: Voyageurs National Park
(48.5020°N, 92.9292°W)
Time: 07:44:24
(UTC-05:00)

Amateur Radio Satellites - All Passes

Search period start: 29 July 2014 07:14
Search period end: 30 July 2014 07:14
Location: Voyageurs National Park, 48.5020°N, 92.9292°W

Satellite Date Start Highest point End Downlink Frequencies (MHz)
Time Altitude Azimuth
PCSat 29 Jul 07:19:35 07:22:29 14° 21° (NNE) 07:25:22 145.825 MHz
Uosat F 29 Jul 07:21:45 07:24:59 17° 304° (WNW) 07:28:12 435.120 FM
AO-7 29 Jul 07:29:18 07:36:50 40° 305° (NW) 07:44:19 29.400 - 29.500 MHz
MaSat-1 29 Jul 07:34:01 07:39:03 44° 249° (WSW) 07:43:53 437.345 MHz
JAS-2 29 Jul 07:45:17 07:51:28 84° 104° (ESE) 07:56:56 435.800 - 435.900 CW/SSB, 435.910 FM
JAS-1B 29 Jul 07:59:18 08:01:31 11° 334° (NNW) 08:03:41 435.800 - 435.900 CW/SSB
Hamsat 29 Jul 08:00:48 08:04:52 42° 290° (WNW) 08:08:57 145.90 MHz
STRAND 1 29 Jul 08:07:32 08:11:47 26° 267° (W) 08:16:03 ?
KITSAT 1 29 Jul 08:16:42 08:24:40 59° 315° (NW) 08:32:41 435.175 FM
SO-67 29 Jul 08:20:02 08:23:30 59° 101° (E) 08:26:55 435.3500 MHz FM
Sapphire 29 Jul 08:29:06 08:33:36 26° 36° (NE) 08:38:05 437.095 MHz 1200 baud AX-25 AFSK
Saudisat 1A 29 Jul 08:45:33 08:49:59 88° 309° (NW) 08:54:27 436.775 MHz
PCSat 29 Jul 09:02:21 09:07:28 39° 45° (NE) 09:12:32 145.825 MHz
AO-7 29 Jul 09:24:01 09:27:21 13° 329° (NNW) 09:30:42 29.400 - 29.500 MHz
JAS-2 29 Jul 09:31:28 09:35:42 20° 307° (NW) 09:39:39 435.800 - 435.900 CW/SSB, 435.910 FM
HO-68 29 Jul 09:54:05 10:00:52 44° 98° (E) 10:07:36 435.675 MHz FM
SO-67 29 Jul 09:54:41 09:56:07 12° 298° (WNW) 09:57:33 435.3500 MHz FM
Sapphire 29 Jul 10:12:12 10:17:39 80° 238° (WSW) 10:23:04 437.095 MHz 1200 baud AX-25 AFSK
KITSAT 1 29 Jul 10:15:20 10:21:55 26° 341° (NNW) 10:28:32 435.175 FM
UKube-1 29 Jul 10:16:36 10:20:46 42° 99° (E) 10:24:54 145.840 MHz, 145.915 MHz
Saudisat 1A 29 Jul 10:26:51 10:30:12 21° 330° (NNW) 10:33:33 436.775 MHz
PCSat 29 Jul 10:45:50 10:50:57 43° 245° (WSW) 10:56:02 145.825 MHz
Oscar 11 29 Jul 11:01:19 11:05:40 68° 102° (ESE) 11:09:59 145.825 FM, Beacon 2401.500 USB
FUNcube-1 29 Jul 11:23:47 11:27:48 44° 99° (E) 11:31:50 145.950 - 145.970 MHz USB
JAS-1B 29 Jul 11:30:22 11:33:30 12° 28° (NNE) 11:36:39 435.800 - 435.900 CW/SSB
HO-68 29 Jul 11:41:54 11:48:37 45° 299° (WNW) 11:55:18 435.675 MHz FM
UKube-1 29 Jul 11:53:16 11:56:46 24° 297° (WNW) 12:00:14 145.840 MHz, 145.915 MHz
SO-50 29 Jul 11:55:45 11:57:32 12° 108° (ESE) 11:59:19 436.795 FM
Sapphire 29 Jul 11:57:36 12:00:12 14° 257° (WSW) 12:02:46 437.095 MHz 1200 baud AX-25 AFSK
Oscar 16 29 Jul 12:02:21 12:04:50 14° 53° (NE) 12:07:19 437.025 USB, Beacon 2401.1428
RS-15 29 Jul 12:05:34 12:11:55 17° 97° (E) 12:18:10 29.354 - 29.394 USB, Beacon 29.352 USB
Saudisat 1A 29 Jul 12:10:53 12:11:28 10° 354° (N) 12:12:04 436.775 MHz
KITSAT 1 29 Jul 12:14:05 12:20:23 24° 11° (NNE) 12:26:39 435.175 FM
ITAMSAT 1 29 Jul 12:25:32 12:26:46 11° 50° (NE) 12:28:00 435.822 SSB
Oscar 11 29 Jul 12:38:43 12:41:22 16° 300° (WNW) 12:44:01 145.825 FM, Beacon 2401.500 USB
Uribyol 2 29 Jul 12:42:49 12:45:48 16° 55° (NE) 12:48:47 436.500 FM
AO-27 29 Jul 12:42:53 12:45:48 15° 54° (NE) 12:48:44 436.795 MHz FM
FUNcube-1 29 Jul 13:00:50 13:03:58 21° 297° (WNW) 13:07:07 145.950 - 145.970 MHz USB
AO-7 29 Jul 13:03:33 13:05:07 11° 25° (NNE) 13:06:41 29.400 - 29.500 MHz
Gurwin Techsat 1B 29 Jul 13:09:07 13:10:51 12° 51° (NE) 13:12:34 435.225 FM
Oscar 19 29 Jul 13:10:08 13:14:56 43° 67° (ENE) 13:19:47 437.125 CW, 437.150 USB
JAS-1B 29 Jul 13:12:59 13:20:56 33° 52° (NE) 13:29:15 435.800 - 435.900 CW/SSB
AO-Echo 29 Jul 13:23:17 13:27:53 30° 63° (ENE) 13:32:28 ?
HO-68 29 Jul 13:31:57 13:34:37 12° 321° (NW) 13:37:16 435.675 MHz FM
SO-50 29 Jul 13:32:50 13:37:19 84° 127° (SE) 13:41:56 436.795 FM
Oscar 16 29 Jul 13:38:15 13:43:21 76° 73° (ENE) 13:48:30 437.025 USB, Beacon 2401.1428
Saudisat 1A 29 Jul 13:50:52 13:53:01 13° 19° (NNE) 13:55:11 436.775 MHz
UOSAT-12 29 Jul 13:53:28 13:55:55 14° 109° (ESE) 13:58:23 437.025 FM, 437.400 FM
ITAMSAT 1 29 Jul 14:00:07 14:05:13 57° 70° (ENE) 14:10:20 435.822 SSB
KITSAT 1 29 Jul 14:10:19 14:18:04 46° 39° (NE) 14:25:45 435.175 FM
RS-15 29 Jul 14:11:06 14:22:02 68° 120° (ESE) 14:32:48 29.354 - 29.394 USB, Beacon 29.352 USB
AO-27 29 Jul 14:19:19 14:24:33 83° 73° (ENE) 14:29:48 436.795 MHz FM
Uribyol 2 29 Jul 14:19:20 14:24:33 86° 74° (ENE) 14:29:46 436.500 FM
TMSAT-1 29 Jul 14:20:40 14:25:14 30° 63° (ENE) 14:29:49 436.925 FM
Gurwin Techsat 1B 29 Jul 14:44:34 14:49:47 60° 70° (ENE) 14:55:02 435.225 FM
AO-7 29 Jul 14:48:15 14:55:16 32° 50° (NE) 15:02:18 29.400 - 29.500 MHz
Oscar 19 29 Jul 14:50:01 14:54:26 29° 266° (W) 14:58:54 437.125 CW, 437.150 USB
JAS-1B 29 Jul 15:01:12 15:10:21 86° 254° (WSW) 15:20:23 435.800 - 435.900 CW/SSB
AO-Echo 29 Jul 15:01:22 15:06:27 46° 262° (W) 15:11:35 ?
SO-50 29 Jul 15:14:52 15:18:28 23° 329° (NNW) 15:22:08 436.795 FM
Oscar 16 29 Jul 15:20:09 15:23:18 16° 271° (W) 15:26:30 437.025 USB, Beacon 2401.1428
Uosat F 29 Jul 15:21:16 15:25:24 26° 61° (ENE) 15:29:32 435.120 FM
Saudisat 1A 29 Jul 15:29:40 15:33:49 38° 41° (NE) 15:37:57 436.775 MHz
UOSAT-12 29 Jul 15:30:44 15:35:22 89° 312° (NW) 15:40:07 437.025 FM, 437.400 FM
ITAMSAT 1 29 Jul 15:41:02 15:45:05 23° 268° (W) 15:49:09 435.822 SSB
TMSAT-1 29 Jul 15:59:55 16:04:59 45° 262° (W) 16:10:06 436.925 FM
AO-27 29 Jul 16:01:44 16:04:44 15° 272° (W) 16:07:46 436.795 MHz FM
Uribyol 2 29 Jul 16:01:53 16:04:43 15° 272° (W) 16:07:33 436.500 FM
KITSAT 1 29 Jul 16:05:53 16:13:47 60° 242° (WSW) 16:21:38 435.175 FM
OPAL 29 Jul 16:11:22 16:14:19 15° 91° (E) 16:17:17 ?
JAS-2 29 Jul 16:18:26 16:22:39 16° 49° (NE) 16:26:40 435.800 - 435.900 CW/SSB, 435.910 FM
RS-15 29 Jul 16:24:21 16:34:58 50° 327° (NNW) 16:45:35 29.354 - 29.394 USB, Beacon 29.352 USB
Gurwin Techsat 1B 29 Jul 16:26:07 16:30:10 22° 269° (W) 16:34:14 435.225 FM
AO-7 29 Jul 16:38:59 16:47:21 79° 252° (WSW) 16:55:47 29.400 - 29.500 MHz
JAS-1B 29 Jul 16:55:05 17:02:12 25° 277° (W) 17:09:51 435.800 - 435.900 CW/SSB
Uosat F 29 Jul 16:59:01 17:03:55 50° 260° (W) 17:08:51 435.120 FM
SO-50 29 Jul 16:59:14 17:00:44 11° 353° (N) 17:02:15 436.795 FM
Saudisat 1A 29 Jul 17:09:22 17:13:24 35° 241° (WSW) 17:17:23 436.775 MHz
UOSAT-12 29 Jul 17:12:30 17:16:11 22° 330° (NNW) 17:19:54 437.025 FM, 437.400 FM
Hamsat 29 Jul 17:22:34 17:26:01 26° 65° (ENE) 17:29:30 145.90 MHz
OPAL 29 Jul 17:48:43 17:53:49 82° 289° (WNW) 17:58:56 ?
JAS-2 29 Jul 17:58:55 18:06:30 61° 69° (ENE) 18:13:29 435.800 - 435.900 CW/SSB, 435.910 FM
KITSAT 1 29 Jul 18:04:21 18:07:29 13° 263° (W) 18:10:37 435.175 FM
AO-7 29 Jul 18:36:00 18:41:29 19° 273° (W) 18:47:01 29.400 - 29.500 MHz
STRAND 1 29 Jul 18:36:17 18:38:11 12° 86° (E) 18:40:03 ?
SO-50 29 Jul 18:40:45 18:43:19 14° 19° (NNE) 18:45:55 436.795 FM
RS-15 29 Jul 18:40:47 18:50:28 34° 360° (N) 19:00:15 29.354 - 29.394 USB, Beacon 29.352 USB
HO-68 29 Jul 18:43:59 18:47:09 14° 41° (NE) 18:50:18 435.675 MHz FM
UOSAT-12 29 Jul 18:56:24 18:58:04 12° 354° (N) 18:59:45 437.025 FM, 437.400 FM
SO-67 29 Jul 18:56:51 19:00:03 35° 71° (ENE) 19:03:16 435.3500 MHz FM
Hamsat 29 Jul 18:58:01 19:01:52 35° 264° (W) 19:05:46 145.90 MHz
OPAL 29 Jul 19:29:09 19:31:58 15° 308° (NW) 19:34:47 ?
JAS-2 29 Jul 19:44:55 19:51:48 34° 267° (W) 19:58:17 435.800 - 435.900 CW/SSB, 435.910 FM
STRAND 1 29 Jul 20:13:03 20:18:12 82° 105° (ESE) 20:23:18 ?
SO-50 29 Jul 20:20:41 20:25:08 40° 41° (NE) 20:29:39 436.795 FM
HO-68 29 Jul 20:26:26 20:33:15 49° 63° (ENE) 20:40:05 435.675 MHz FM
Oscar 11 29 Jul 20:27:07 20:28:41 12° 56° (ENE) 20:30:16 145.825 FM, Beacon 2401.500 USB
SO-67 29 Jul 20:30:55 20:33:16 17° 268° (W) 20:35:39 435.3500 MHz FM
UOSAT-12 29 Jul 20:37:31 20:40:14 15° 19° (NNE) 20:42:57 437.025 FM, 437.400 FM
RS-15 29 Jul 20:55:23 21:05:59 50° 33° (NNE) 21:16:50 29.354 - 29.394 USB, Beacon 29.352 USB
UKube-1 29 Jul 21:15:35 21:19:53 61° 71° (ENE) 21:24:13 145.840 MHz, 145.915 MHz
MaSat-1 29 Jul 21:28:35 21:32:34 42° 111° (ESE) 21:37:08 437.345 MHz
STRAND 1 29 Jul 21:53:28 21:56:46 18° 304° (NW) 22:00:03 ?
Oscar 11 29 Jul 21:59:53 22:04:11 85° 75° (ENE) 22:08:32 145.825 FM, Beacon 2401.500 USB
SO-50 29 Jul 22:01:20 22:05:44 38° 241° (WSW) 22:10:10 436.795 FM
HO-68 29 Jul 22:14:27 22:21:06 40° 263° (W) 22:27:47 435.675 MHz FM
UOSAT-12 29 Jul 22:17:06 22:21:37 41° 42° (NE) 22:26:05 437.025 FM, 437.400 FM
FUNcube-1 29 Jul 22:23:49 22:28:02 58° 72° (ENE) 22:32:11 145.950 - 145.970 MHz USB
UKube-1 29 Jul 22:53:46 22:56:30 16° 270° (W) 22:59:15 145.840 MHz, 145.915 MHz
MaSat-1 29 Jul 23:06:05 23:10:04 31° 314° (NW) 23:14:31 437.345 MHz
RS-15 29 Jul 23:08:07 23:19:00 69° 240° (WSW) 23:30:16 29.354 - 29.394 USB, Beacon 29.352 USB
Oscar 11 29 Jul 23:39:44 23:41:00 11° 273° (W) 23:42:17 145.825 FM, Beacon 2401.500 USB
PCSat 29 Jul 23:50:51 23:53:30 14° 103° (ESE) 23:56:10 145.825 MHz
UOSAT-12 29 Jul 23:57:25 00:01:45 36° 242° (WSW) 00:06:01 437.025 FM, 437.400 FM
FUNcube-1 30 Jul 00:02:11 00:04:49 16° 270° (W) 00:07:25 145.950 - 145.970 MHz USB
ISS 30 Jul 00:16:46 00:19:55 39° 147° (SSE) 00:23:05 145.800 FM
MaSat-1 30 Jul 00:48:51 00:49:06 10° 337° (NNW) 00:49:20 437.345 MHz
Sapphire 30 Jul 00:57:45 01:02:50 44° 115° (ESE) 01:07:57 437.095 MHz 1200 baud AX-25 AFSK
Oscar 19 30 Jul 01:20:20 01:21:38 11° 85° (E) 01:22:56 437.125 CW, 437.150 USB
RS-15 30 Jul 01:22:34 01:29:14 18° 263° (W) 01:36:04 29.354 - 29.394 USB, Beacon 29.352 USB
PCSat 30 Jul 01:30:39 01:36:03 81° 122° (ESE) 01:41:31 145.825 MHz
Oscar 16 30 Jul 01:46:53 01:50:41 20° 91° (E) 01:54:28 437.025 USB, Beacon 2401.1428
ISS 30 Jul 01:53:15 01:56:34 60° 346° (NNW) 01:59:55 145.800 FM
ITAMSAT 1 30 Jul 02:10:35 02:13:30 15° 88° (E) 02:16:24 435.822 SSB
Uribyol 2 30 Jul 02:28:56 02:32:59 23° 92° (E) 02:37:01 436.500 FM
AO-27 30 Jul 02:29:17 02:33:18 22° 92° (E) 02:37:17 436.795 MHz FM
Sapphire 30 Jul 02:41:17 02:46:20 39° 316° (NW) 02:51:26 437.095 MHz 1200 baud AX-25 AFSK
JAS-1B 30 Jul 02:44:24 02:52:26 31° 87° (E) 02:59:31 435.800 - 435.900 CW/SSB
Oscar 19 30 Jul 02:56:41 03:01:53 75° 104° (ESE) 03:07:03 437.125 CW, 437.150 USB
Gurwin Techsat 1B 30 Jul 02:57:55 03:01:30 18° 89° (E) 03:05:03 435.225 FM
AO-Echo 30 Jul 03:04:54 03:09:48 45° 98° (E) 03:14:31 ?
PCSat 30 Jul 03:15:39 03:20:07 25° 324° (NW) 03:24:36 145.825 MHz
Oscar 16 30 Jul 03:25:22 03:30:29 63° 289° (WNW) 03:35:35 437.025 USB, Beacon 2401.1428
OPAL 30 Jul 03:29:18 03:33:56 42° 64° (ENE) 03:38:36 ?
ISS 30 Jul 03:30:18 03:33:36 49° 6° (N) 03:36:53 145.800 FM
ITAMSAT 1 30 Jul 03:48:28 03:53:41 84° 287° (WNW) 03:58:51 435.822 SSB
MaSat-1 30 Jul 04:07:01 04:08:57 12° 27° (NNE) 04:10:54 437.345 MHz
Uribyol 2 30 Jul 04:07:46 04:12:49 56° 291° (WNW) 04:17:50 436.500 FM
AO-27 30 Jul 04:08:06 04:13:12 57° 290° (WNW) 04:18:15 436.795 MHz FM
TMSAT-1 30 Jul 04:11:34 04:16:47 55° 100° (E) 04:21:57 436.925 FM
Sapphire 30 Jul 04:28:31 04:31:21 14° 340° (NNW) 04:34:11 437.095 MHz 1200 baud AX-25 AFSK
JAS-1B 30 Jul 04:34:19 04:43:54 76° 290° (WNW) 04:52:08 435.800 - 435.900 CW/SSB
Gurwin Techsat 1B 30 Jul 04:36:43 04:42:02 73° 288° (WNW) 04:47:19 435.225 FM
AO-7 30 Jul 04:36:51 04:43:50 29° 93° (E) 04:50:44 29.400 - 29.500 MHz
Oscar 19 30 Jul 04:37:06 04:40:40 19° 302° (WNW) 04:44:15 437.125 CW, 437.150 USB
AO-Echo 30 Jul 04:44:04 04:48:22 28° 298° (WNW) 04:52:32 ?
KITSAT 1 30 Jul 04:48:24 04:51:37 13° 97° (E) 04:54:49 435.175 FM
Uosat F 30 Jul 05:02:53 05:07:33 37° 97° (E) 05:12:11 435.120 FM
PCSat 30 Jul 05:03:46 05:05:34 12° 349° (N) 05:07:21 145.825 MHz
ISS 30 Jul 05:07:05 05:10:27 69° 206° (SSW) 05:13:48 145.800 FM
Oscar 16 30 Jul 05:07:10 05:08:52 12° 309° (NW) 05:10:33 437.025 USB, Beacon 2401.1428
OPAL 30 Jul 05:08:41 05:12:57 29° 263° (W) 05:17:17 ?
ITAMSAT 1 30 Jul 05:29:32 05:32:25 15° 306° (NW) 05:35:17 435.822 SSB
MaSat-1 30 Jul 05:42:53 05:47:49 37° 49° (NE) 05:52:37 437.345 MHz
Uribyol 2 30 Jul 05:50:26 05:51:13 10° 310° (NW) 05:52:00 436.500 FM
AO-27 30 Jul 05:50:28 05:51:39 11° 310° (NW) 05:52:51 436.795 MHz FM
TMSAT-1 30 Jul 05:52:06 05:56:24 26° 299° (WNW) 06:00:41 436.925 FM
STRAND 1 30 Jul 05:54:48 05:59:06 28° 62° (ENE) 06:03:24 ?
Sapphire 30 Jul 06:15:55 06:17:19 11° 7° (N) 06:18:42 437.095 MHz 1200 baud AX-25 AFSK
Gurwin Techsat 1B 30 Jul 06:18:33 06:21:07 14° 307° (NW) 06:23:41 435.225 FM
JAS-1B 30 Jul 06:25:39 06:32:50 25° 314° (NW) 06:39:27 435.800 - 435.900 CW/SSB
AO-7 30 Jul 06:29:03 06:37:24 76° 294° (WNW) 06:45:39 29.400 - 29.500 MHz
KITSAT 1 30 Jul 06:37:26 06:45:20 60° 118° (ESE) 06:53:15 435.175 FM
Hamsat 30 Jul 06:39:41 06:43:32 30° 95° (E) 06:47:22 145.90 MHz
Uosat F 30 Jul 06:41:49 06:46:18 33° 296° (WNW) 06:50:45 435.120 FM
ISS 30 Jul 06:44:45 06:46:41 15° 224° (SW) 06:48:36 145.800 FM
PCSat 30 Jul 06:49:09 06:51:34 13° 16° (NNE) 06:53:58 145.825 MHz
JAS-2 30 Jul 06:50:43 06:56:05 33° 93° (E) 07:00:57 435.800 - 435.900 CW/SSB, 435.910 FM
